Regional Weather Roundup
Issued by NWS

Home | Current Version | Previous Version | Graphics & Text | Print | Product List | Glossary On
Versions: 1 2 3 4 5 6 7 8 9 10 11 12 13 14 15 16 17 18 19 20 21 22 23 24 25 26 27 28 29 30 31 32 33 34 35 36 37 38 39 40 41 42 43 44 45 46 47 48 49 50
000
ASUS45 KPSR 031900
RWRAZ

ARIZONA HOURLY REGIONAL WEATHER ROUNDUP
NATIONAL WEATHER SERVICE PHOENIX AZ
1200 PM MST THU SEP 03 2015

NOTE: FAIR INDICATES FEW OR NO CLOUDS BELOW 12,000 FEET WITH NO
SIGNIFICANT WEATHER AND/OR OBSTRUCTIONS TO VISIBILITY.

AZZ001>003-036-032000-
NORTHWEST ARIZONA

CITY           SKY/WX    TMP DP  RH WIND       PRES   REMARKS
KINGMAN        SUNNY     91  38  15 SW18G25   29.97F
$$

AZZ004>008-015-016-018-032000-
NORTH CENTRAL ARIZONA

CITY           SKY/WX    TMP DP  RH WIND       PRES   REMARKS
GRAND CANYON   SUNNY     76  35  22 SW15      30.20F
WILLIAMS       MOSUNNY   75  37  25 S17G25    30.26F
PRESCOTT       MOSUNNY   81  39  22 S15G22    30.11F
FLAGSTAFF      NOT AVBL
PAYSON         MOSUNNY   81  54  39 S8        30.14F
PAGE           MOSUNNY   87  37  17 SW10      30.01F
$$

AZZ009>014-017-032000-
NORTHEAST ARIZONA

CITY           SKY/WX    TMP DP  RH WIND       PRES   REMARKS
WINSLOW        NOT AVBL
SAINT JOHNS    SUNNY     77  53  43 SW6       30.16F
WINDOW ROCK    SUNNY     78  44  29 W9        30.22F
SHOW LOW       MOSUNNY   73  48  40 SW14      30.21F
$$

AZZ023-032000-
GREATER PHOENIX AREA

CITY           SKY/WX    TMP DP  RH WIND       PRES   REMARKS
PHOENIX        PTSUNNY   95  54  25 S5        29.84F
GLENDALE       PTSUNNY   97  48  19 NE3       29.85F
DEER VALLEY    SUNNY     93  50  23 VRB3      29.86F
SCOTTSDALE     MOSUNNY   93  54  26 S9        29.88F
MESA-FALCON    PTSUNNY   95  48  20 S10       29.86F
MESA-GATEWAY   MOSUNNY   93  52  24 NW3       29.88F
CHANDLER       PTSUNNY   95  52  23 W8        29.86F
$$

AZZ027-028-032000-
SOUTHWEST MARICOPA COUNTY AND PINAL COUNTY

CITY           SKY/WX    TMP DP  RH WIND       PRES   REMARKS
CASA GRANDE    SUNNY     95  55  26 SW3       29.86F
$$

AZZ503-504-507>509-032000-
SOUTHEAST ARIZONA

CITY           SKY/WX    TMP DP  RH WIND       PRES   REMARKS
TUCSON         MOSUNNY   88  60  38 NW3       29.97F
DAVIS-MONTHAN  MOSUNNY   88  62  40 NE2       29.95F
RYAN FIELD     TSTM      77  70  78 W26G38    29.99R
NOGALES        MOSUNNY   84  56  38 CALM      30.04F
SIERRA VISTA   MOSUNNY   79  59  50 VRB6      30.12F
SAFFORD        PTSUNNY   81  58  45 VRB3      30.00F
$$

AZZ020-021-025-026-031-032000-
SOUTHWEST ARIZONA

CITY           SKY/WX    TMP DP  RH WIND       PRES   REMARKS
YUMA           NOT AVBL
$$

CAZ031-033-041-043-047-048-061-032000-
SOUTHERN CALIFORNIA

CITY           SKY/WX    TMP DP  RH WIND       PRES   REMARKS
DOWNTOWN L.A.  MOSUNNY   75  56  51 CALM      29.91F
L.A. AIRPORT   MOSUNNY   74  56  53 SE5       29.92F
SAN DIEGO      MOSUNNY   75  58  55 W9        29.93F
BURBANK        SUNNY     74  56  53 S8        29.92F
ONTARIO        MOSUNNY   72  57  59 VRB5      29.93F
RIVERSIDE      SUNNY     73  57  57 VRB6      29.93F
PALM SPRINGS   SUNNY     94  39  14 SW6       29.80F
EL CENTRO NAS  MOSUNNY   97  47  18 CALM      29.76F
IMPERIAL       SUNNY     97  48  18 NW3       29.75F
BLYTHE         SUNNY     97  55  24 S13       29.78F
$$

NVZ020-UTZ003-032000-
SOUTHERN NEVADA-UTAH

CITY           SKY/WX    TMP DP  RH WIND       PRES   REMARKS
LAS VEGAS      NOT AVBL
SALT LAKE CITY PTSUNNY   85  39  19 SE25G33   29.89F
$$

NMZ009-TXZ055-032000-
NEW MEXICO-WEST TEXAS

CITY           SKY/WX    TMP DP  RH WIND       PRES   REMARKS
ALBUQUERQUE    MOSUNNY   81  47  30 VRB3      30.13F
EL PASO        PTSUNNY   87  50  27 CALM      30.03F
$$


........................KEY........................
SKY/WX - SKY CONDITION/WEATHER
TMP    - TEMPERATURE IN FAHRENHEIT
DP     - DEW POINT IN FAHRENHEIT
RH     - RELATIVE HUMIDITY IN PERCENT
WIND   - DIRECTION AND SPEED IN MILES PER HOUR (MPH)
VRB    - VARIABLE WIND DIRECTION
PRES   - MEAN SEA LEVEL PRESSURE IN INCHES OF MERCURY
         F - FALLING PRESSURE   R - RISING PRESSURE
         S - STEADY PRESSURE
VSB    - VISIBILITY IN MILES
HX     - HEAT INDEX IN FAHRENHEIT
WCI    - WIND CHILL INDEX IN FAHRENHEIT
TC     - TEMPERATURE IN CELSIUS WHICH IS ALSO KNOWN AS
         TEMPERATURE IN CENTIGRADE
AFB    - AIR FORCE BASE
         LUKE AFB IS LUKE AIR FORCE BASE
         DAVIS-MONTHAN IS DAVIS-MONTHAN AIR FORCE BASE
NAS    - NAVAL AIR STATION
         EL CENTRO NAS IS EL CENTRO NAVAL AIR STATION
N/A    - NOT AVAILABLE




USA.gov is the U.S. government's official web portal to all federal, state and local government web resources and services.